User: anonymous   Login
Location: Unspecified
(0.0000°N, 0.0000°E)
Time: 20:48:48
(UTC+00:00)
Language:

STARLINK-1967 - Orbit

View from above orbital plane
View from above orbital plane
View from above satellite
View from above satellite

Ground track
Ground track

The orbit is defined by the following mean orbital elements,

1 47568U          26145.58100878 +.00000000 +00000-0 +74278-3 0 00009
2 47568  53.0419 344.6032 0001563 188.7038 171.3955 15.77451233    05
Epoch (UTC): 25 May 2026 13:56:39
Eccentricity: 0.0001563
inclination: 53.0419°
perigee height: 337 km
apogee height: 339 km
right ascension of ascending node: 344.6032°
argument of perigee: 188.7038°
revolutions per day: 15.77451233
mean anomaly at epoch: 171.3955°

The dashed part of the orbit path shows where the satellite is in the earth's shadow,  

DLR